Weather History for Page, AZ

Change the Weather History Date:

Saturday, October 2, 2010

  Actual Average Record
Temperature  
Mean Temperature 76 °F -  
Max Temperature 89 °F 80 °F 92 °F (1978)
Min Temperature 64 °F 54 °F 40 °F (1959)
Cooling Degree Days 12    
Growing Degree Days 26 (Base 50)    
Moisture  
Dew Point 38 °F    
Average Humidity 27    
Maximum Humidity 40    
Minimum Humidity 15    
Precipitation  
Precipitation 0.00 in - - ()
Sea Level Pressure  
Sea Level Pressure 29.95 in    
Wind  
Wind Speed 5 mph (SW)    
Max Wind Speed 10 mph    
Max Gust Speed 21 mph    
Visibility 10 miles    
Events      
Averages and records for this station are not official NWS values.
T = Trace of Precipitation, MM = Missing Value Source: NWS Daily Summary

Daily Weather History Graph

Daily Weather History Graph

Search for Another Location

Airport:

Trip Planner

Search our weather history database for the weather conditions in past years. The results will help you decide how hot, cold, wet, or windy it might be!

Date:

Astronomy

Oct. 02, 2010 Rise Set
Actual Time 6:22 AM MST 6:07 PM MST
Civil Twilight 5:56 AM MST 6:33 PM MST
Nautical Twilight 5:26 AM MST 7:03 PM MST
Astronomical Twilight 4:55 AM MST 7:33 PM MST
Moon 12:20 AM MST (10/2) 2:49 PM MST (10/2)
Length of Visible Light 12h 37m
Length of Day
11h 45m
Waning Crescent, 32% of the Moon is Illuminated
Oct 2
Waning Crescent
Oct 7
New
Oct 14
First Quarter
Oct 22
Full
Oct 30
Last Quarter

Hourly Weather History & Observations

Time (MST) Temp. Dew Point Humidity Pressure Visibility Wind Dir Wind Speed Gust Speed Precip Events Conditions
12:53 AM 77.0 °F 37.0 °F 24% 29.94 in 10.0 mi North 8.1 mph - N/A   Mostly Cloudy
1:53 AM 73.9 °F 36.0 °F 25% 29.94 in 10.0 mi WSW 4.6 mph - 0.00 in   Clear
2:53 AM 70.0 °F 36.0 °F 29% 29.93 in 10.0 mi Calm Calm - N/A   Clear
3:53 AM 70.0 °F 37.0 °F 30% 29.95 in 10.0 mi Calm Calm - N/A   Clear
4:53 AM 66.9 °F 37.9 °F 34% 29.97 in 10.0 mi SSE 3.5 mph - N/A   Clear
5:53 AM 64.0 °F 36.0 °F 35% 29.99 in 10.0 mi SSE 5.8 mph - N/A   Clear
6:53 AM 66.0 °F 37.9 °F 36% 30.00 in 10.0 mi SW 4.6 mph - N/A   Clear
7:53 AM 70.0 °F 37.0 °F 30% 30.01 in 10.0 mi East 3.5 mph - N/A   Clear
8:53 AM 75.0 °F 37.0 °F 25% 30.01 in 10.0 mi Calm Calm - N/A   Clear
9:53 AM 78.1 °F 37.9 °F 24% 30.01 in 10.0 mi Variable 4.6 mph - N/A   Clear
10:53 AM 80.1 °F 37.9 °F 22% 30.00 in 10.0 mi Calm Calm - N/A   Clear
11:53 AM 82.9 °F 39.0 °F 21% 29.97 in 10.0 mi ENE 5.8 mph - N/A   Clear
12:53 PM 86.0 °F 37.9 °F 18% 29.92 in 10.0 mi Variable 4.6 mph - N/A   Clear
1:53 PM 89.1 °F 36.0 °F 15% 29.88 in 10.0 mi NE 5.8 mph - N/A   Clear
2:53 PM 89.1 °F 35.1 °F 15% 29.88 in 10.0 mi NW 4.6 mph - N/A   Clear
3:53 PM 87.1 °F 35.1 °F 16% 29.87 in 10.0 mi Variable 4.6 mph - N/A   Clear
4:53 PM 84.0 °F 37.0 °F 19% 29.88 in 10.0 mi SW 6.9 mph - N/A   Clear
5:53 PM 82.9 °F 36.0 °F 19% 29.90 in 10.0 mi SW 8.1 mph - N/A   Clear
6:53 PM 79.0 °F 41.0 °F 26% 29.93 in 10.0 mi WNW 10.4 mph 20.7 mph N/A   Clear
7:53 PM 75.9 °F 43.0 °F 31% 29.97 in 10.0 mi WNW 9.2 mph 18.4 mph N/A   Clear
8:53 PM 73.9 °F 44.1 °F 34% 29.98 in 10.0 mi NW 5.8 mph - N/A   Clear
9:53 PM 73.0 °F 44.1 °F 35% 29.97 in 10.0 mi Calm Calm - N/A   Clear
10:53 PM 70.0 °F 44.1 °F 39% 29.97 in 10.0 mi South 3.5 mph - N/A   Clear
11:53 PM 68.0 °F 43.0 °F 40% 29.95 in 10.0 mi SE 6.9 mph - N/A   Clear